Regional Weather Roundup
Issued by NWS

Home | Current Version | Previous Version | Graphics & Text | Print | Product List | Glossary Off
Versions: 1 2 3 4 5 6 7 8 9 10 11 12 13 14 15 16 17 18 19 20 21 22 23 24 25 26 27 28 29 30 31 32 33 34 35 36 37 38 39 40 41 42 43 44 45 46 47 48 49 50

000
ASUS43 KTOP 301408
RWRKS

WEATHER ROUNDUP FOR KANSAS
NATIONAL WEATHER SERVICE GOODLAND KS
900 AM CDT SAT AUG 30 2014

NOTE:  "FAIR" INDICATES FEW OR NO CLOUDS BELOW 12,000 FEET WITH NO
SIGNIFICANT WEATHER AND/OR OBSTRUCTIONS TO VISIBILITY.

KSZ001>006-013>018-027>032-041>047-301500-
NORTHWEST KANSAS

CITY           SKY/WX    TMP DP  RH WIND       PRES   REMARKS
GOODLAND       SUNNY     62  58  86 W6        30.06S
HAYS           SUNNY     70  57  64 E6        30.01R
HILL CITY      SUNNY     66  60  81 E6        30.01S
RUSSELL        MOSUNNY   70  61  73 NE5       29.99R
$$

KSZ061>065-074>080-084>089-301500-
SOUTHWEST KANSAS

CITY           SKY/WX    TMP DP  RH WIND       PRES   REMARKS
DODGE CITY     MOSUNNY   71  57  61 S3        30.04R
ELKHART          N/A     68  56  65 NW1         N/A
GARDEN CITY    MOSUNNY   68  54  60 SW3       30.04S
GREAT BEND     MOSUNNY   70  59  68 CALM      30.00S
LIBERAL        CLOUDY    70  55  60 CALM      30.07R
PRATT          MOSUNNY   68  59  73 NW3       30.02R
$$

KSZ066>073-081>083-090>101-301500-
SOUTHEAST KANSAS

CITY           SKY/WX    TMP DP  RH WIND       PRES   REMARKS
CHANUTE        SUNNY     76  70  82 W5        29.96R
COFFEYVILLE    SUNNY     77  70  79 SW8       29.95R
HUTCHINSON     SUNNY     73  64  73 CALM      29.98R
MEDICINE LODGE   N/A     69  64  84 N7        29.98S
NEWTON         SUNNY     72  63  73 NE5       30.01R
PARSONS        SUNNY     77  70  79 SW7       29.96S
WICHITA INTL   MOSUNNY   74  68  81 N5        29.97R
WICHITA JABRA  SUNNY     74  67  78 N5        29.97R
WICHITA MCCONL SUNNY     72  72 100 N2        29.97R
WINFIELD       SUNNY     73  69  87 CALM      29.97R
$$

KSZ007>012-019>026-033>040-048>060-102>105-301500-
NORTHEAST KANSAS

CITY           SKY/WX    TMP DP  RH WIND       PRES   REMARKS
CONCORDIA      SUNNY     68  63  84 N5        29.98R
EMPORIA        SUNNY     72  68  87 NW5       29.96R
LAWRENCE       SUNNY     75  68  78 VRB3      29.94R
MANHATTAN      SUNNY     73  66  78 CALM      29.95S
MARYSVILLE     SUNNY     68  64  88 N5        29.97R
OLATHE IND     MOSUNNY   73  68  84 W7        29.95S
OLATHE EXE     SUNNY     73  68  84 NW7       29.93S
SALINA         SUNNY     71  64  78 N5        29.97S
TOPEKA BILLARD SUNNY     73  69  87 W5        29.94S
TOPEKA FORBES  SUNNY     73  67  81 NW5       29.94S
$$


USA.gov is the U.S. government's official web portal to all federal, state and local government web resources and services.